When you browse on this site, cookies collect data to enhance your experience and personalize the content and advertising you see.
Visit our Privacy Policy to learn more. By continuing to use the site, you agree to this use of cookies and data.
  • In Slovakia
  • List of Countries
  • For 7 days
  • Water Temperature
  • Satellite Maps
  • Weather Map
  • Weather Widgets
  • user-avatar
    Login

    Hourly Weather Sidi Bu-l-Abbas

    Today, 21 November, Wednesday

    Time Temperature Precipitation Wind Pressure Humidity
    00:00 +13°C° 0 mm 4 mps 718 mmHg 69%
    01:00 +13°C° 0 mm 4 mps 718 mmHg 68%
    02:00 +12°C° 0 mm 4 mps 718 mmHg 67%
    03:00 +12°C° 0 mm 4 mps 718 mmHg 66%
    04:00 +12°C° 0 mm 3 mps 719 mmHg 65%
    05:00 +12°C° 0 mm 3 mps 719 mmHg 65%
    06:00 +12°C° 0 mm 3 mps 719 mmHg 64%
    07:00 +13°C° 0 mm 3 mps 719 mmHg 59%
    08:00 +14°C° 0 mm 3 mps 720 mmHg 53%
    09:00 +17°C° 0 mm 3 mps 720 mmHg 48%
    10:00 +18°C° 0 mm 3 mps 720 mmHg 41%
    11:00 +20°C° 0 mm 4 mps 720 mmHg 34%
    12:00 +22°C° 0 mm 4 mps 720 mmHg 28%
    13:00 +22°C° 0 mm 4 mps 720 mmHg 27%
    14:00 +22°C° 0 mm 5 mps 719 mmHg 26%
    15:00 +23°C° 0 mm 5 mps 719 mmHg 24%
    16:00 +21°C° 0 mm 4 mps 719 mmHg 31%
    17:00 +19°C° 0 mm 3 mps 720 mmHg 38%
    18:00 +17°C° 0 mm 2 mps 720 mmHg 45%
    19:00 +17°C° 0 mm 2 mps 720 mmHg 47%
    20:00 +16°C° 0 mm 1 mps 720 mmHg 49%
    21:00 +16°C° 0 mm 1 mps 720 mmHg 51%
    22:00 +16°C° 0 mm 1 mps 720 mmHg 51%
    23:00 +15°C° 0 mm 1 mps 721 mmHg 51%

    Tomorrow, 22 November, Thursday

    Time Temperature Precipitation Wind Pressure Humidity
    00:00 +15°C° 0 mm 2 mps 721 mmHg 52%
    01:00 +15°C° 0 mm 2 mps 720 mmHg 52%
    02:00 +15°C° 0 mm 2 mps 720 mmHg 53%
    03:00 +15°C° 0 mm 2 mps 720 mmHg 53%
    04:00 +14°C° 0 mm 2 mps 720 mmHg 54%
    05:00 +14°C° 0 mm 2 mps 720 mmHg 55%
    06:00 +14°C° 0 mm 2 mps 720 mmHg 56%
    07:00 +15°C° 0 mm 2 mps 720 mmHg 53%
    08:00 +16°C° 0 mm 2 mps 721 mmHg 49%
    09:00 +17°C° 0 mm 2 mps 721 mmHg 46%
    10:00 +18°C° 0 mm 2 mps 721 mmHg 42%
    11:00 +19°C° 0 mm 3 mps 721 mmHg 39%
    12:00 +21°C° 0 mm 3 mps 720 mmHg 35%
    13:00 +21°C° 0 mm 3 mps 720 mmHg 35%
    14:00 +21°C° 0 mm 4 mps 719 mmHg 34%
    15:00 +22°C° 0 mm 4 mps 719 mmHg 34%
    16:00 +20°C° 0 mm 4 mps 719 mmHg 38%
    17:00 +19°C° 0 mm 4 mps 719 mmHg 43%
    18:00 +18°C° 0 mm 3 mps 719 mmHg 47%
    19:00 +17°C° 0 mm 3 mps 719 mmHg 46%
    20:00 +17°C° 0 mm 3 mps 719 mmHg 45%
    21:00 +17°C° 0 mm 3 mps 719 mmHg 44%
    22:00 +16°C° 0 mm 3 mps 719 mmHg 44%
    23:00 +16°C° 0 mm 3 mps 719 mmHg 45%

    Day after tomorrow, 23 November, Friday

    Time Temperature Precipitation Wind Pressure Humidity
    00:00 +16°C° 0 mm 3 mps 719 mmHg 45%
    01:00 +14°C° 0 mm 3 mps 719 mmHg 48%
    02:00 +14°C° 0 mm 3 mps 719 mmHg 51%
    03:00 +13°C° 0 mm 3 mps 718 mmHg 55%
    04:00 +14°C° 0 mm 2 mps 719 mmHg 58%
    05:00 +14°C° 0 mm 2 mps 719 mmHg 61%
    06:00 +13°C° 0 mm 2 mps 719 mmHg 64%
    07:00 +14°C° 0 mm 2 mps 719 mmHg 60%
    08:00 +15°C° 0 mm 2 mps 720 mmHg 56%
    09:00 +17°C° 0 mm 2 mps 721 mmHg 52%
    10:00 +18°C° 0 mm 3 mps 721 mmHg 49%
    11:00 +18°C° 0 mm 3 mps 721 mmHg 46%
    12:00 +19°C° 0 mm 4 mps 721 mmHg 43%
    13:00 +19°C° 0 mm 4 mps 720 mmHg 46%
    14:00 +19°C° 0 mm 4 mps 720 mmHg 49%
    15:00 +19°C° 0 mm 4 mps 720 mmHg 52%
    16:00 +18°C° 0 mm 3 mps 720 mmHg 58%
    17:00 +17°C° 0 mm 2 mps 720 mmHg 64%
    18:00 +16°C° 0 mm 2 mps 721 mmHg 71%
    19:00 +16°C° 0.1 mm 1 mps 721 mmHg 73%
    20:00 +16°C° 0.1 mm 1 mps 721 mmHg 74%
    21:00 +15°C° 0.1 mm 1 mps 722 mmHg 76%
    22:00 +15°C° 0.1 mm 1 mps 722 mmHg 78%
    23:00 +15°C° 0.1 mm 1 mps 722 mmHg 79%

    24 November, Saturday

    Time Temperature Precipitation Wind Pressure Humidity
    00:00 +15°C° 0.1 mm 1 mps 721 mmHg 81%
    01:00 +15°C° 0.2 mm 1 mps 721 mmHg 82%
    02:00 +15°C° 0.2 mm 1 mps 721 mmHg 83%
    03:00 +15°C° 0.2 mm 1 mps 721 mmHg 84%
    04:00 +14°C° 0.2 mm 1 mps 720 mmHg 85%
    05:00 +14°C° 0.2 mm 1 mps 720 mmHg 86%
    06:00 +14°C° 0.2 mm 1 mps 720 mmHg 87%
    07:00 +14°C° 0.2 mm 1 mps 720 mmHg 85%
    08:00 +14°C° 0.2 mm 1 mps 721 mmHg 84%
    09:00 +15°C° 0.2 mm 1 mps 721 mmHg 82%
    10:00 +15°C° 0.3 mm 2 mps 721 mmHg 81%
    11:00 +15°C° 0.3 mm 2 mps 720 mmHg 79%
    12:00 +15°C° 0.3 mm 2 mps 720 mmHg 78%
    13:00 +15°C° 0.4 mm 2 mps 720 mmHg 77%
    14:00 +15°C° 0.4 mm 2 mps 720 mmHg 77%
    15:00 +15°C° 0.4 mm 2 mps 719 mmHg 77%
    16:00 +15°C° 0.1 mm 2 mps 719 mmHg 79%
    17:00 +14°C° 0.1 mm 2 mps 720 mmHg 81%
    18:00 +14°C° 0.1 mm 1 mps 720 mmHg 83%
    19:00 +14°C° 0 mm 1 mps 720 mmHg 84%
    20:00 +13°C° 0 mm 1 mps 721 mmHg 84%
    21:00 +13°C° 0 mm 1 mps 721 mmHg 85%
    22:00 +13°C° 0 mm 1 mps 721 mmHg 85%
    23:00 +13°C° 0 mm 1 mps 720 mmHg 86%

    25 November, Sunday

    Time Temperature Precipitation Wind Pressure Humidity
    00:00 +12°C° 0 mm 1 mps 720 mmHg 87%
    01:00 +12°C° 0 mm 2 mps 720 mmHg 86%
    02:00 +12°C° 0 mm 2 mps 720 mmHg 84%
    03:00 +12°C° 0 mm 2 mps 719 mmHg 82%
    04:00 +12°C° 0 mm 2 mps 720 mmHg 79%
    05:00 +12°C° 0 mm 2 mps 720 mmHg 76%
    06:00 +12°C° 0 mm 2 mps 720 mmHg 73%
    07:00 +12°C° 0.1 mm 3 mps 720 mmHg 69%
    08:00 +13°C° 0.1 mm 3 mps 721 mmHg 64%
    09:00 +13°C° 0.1 mm 3 mps 721 mmHg 60%
    10:00 +14°C° 0.1 mm 3 mps 721 mmHg 59%
    11:00 +15°C° 0.1 mm 4 mps 721 mmHg 58%
    12:00 +15°C° 0.1 mm 4 mps 721 mmHg 57%
    13:00 +17°C° 0 mm 4 mps 721 mmHg 56%
    14:00 +16°C° 0 mm 5 mps 721 mmHg 55%
    15:00 +17°C° 0 mm 5 mps 721 mmHg 54%
    16:00 +15°C° 0 mm 4 mps 721 mmHg 60%
    17:00 +14°C° 0 mm 3 mps 721 mmHg 67%
    18:00 +14°C° 0 mm 2 mps 721 mmHg 73%
    19:00 +14°C° 0 mm 2 mps 721 mmHg 75%
    20:00 +13°C° 0 mm 2 mps 721 mmHg 78%
    21:00 +13°C° 0 mm 2 mps 722 mmHg 80%
    22:00 +12°C° 0 mm 3 mps 721 mmHg 80%
    23:00 +12°C° 0 mm 3 mps 721 mmHg 80%

    26 November, Monday

    Time Temperature Precipitation Wind Pressure Humidity
    00:00 +12°C° 0 mm 3 mps 721 mmHg 80%
    01:00 +12°C° 0 mm 3 mps 721 mmHg 79%
    02:00 +12°C° 0 mm 3 mps 721 mmHg 78%
    03:00 +12°C° 0 mm 3 mps 720 mmHg 78%
    04:00 +12°C° 0 mm 3 mps 721 mmHg 78%
    05:00 +12°C° 0 mm 3 mps 721 mmHg 78%
    06:00 +12°C° 0 mm 2 mps 721 mmHg 79%
    07:00 +13°C° 0 mm 3 mps 721 mmHg 73%
    08:00 +14°C° 0 mm 3 mps 722 mmHg 68%
    09:00 +16°C° 0 mm 3 mps 722 mmHg 63%
    10:00 +17°C° 0 mm 4 mps 722 mmHg 59%
    11:00 +18°C° 0 mm 4 mps 722 mmHg 56%
    12:00 +19°C° 0 mm 5 mps 722 mmHg 53%
    13:00 +19°C° 0 mm 5 mps 722 mmHg 54%
    14:00 +19°C° 0 mm 5 mps 721 mmHg 56%
    15:00 +19°C° 0 mm 4 mps 721 mmHg 57%
    16:00 +18°C° 0 mm 3 mps 721 mmHg 62%
    17:00 +17°C° 0 mm 2 mps 721 mmHg 67%
    18:00 +16°C° 0 mm 2 mps 721 mmHg 72%
    19:00 +16°C° 0 mm 2 mps 721 mmHg 73%
    20:00 +16°C° 0 mm 1 mps 722 mmHg 75%
    21:00 +16°C° 0 mm 1 mps 722 mmHg 76%
    22:00 +15°C° 0.2 mm 2 mps 721 mmHg 79%
    23:00 +15°C° 0.2 mm 2 mps 721 mmHg 82%
    Show more